Regional Weather Roundup
Issued by NWS

Home | Current Version | Previous Version | Graphics & Text | Print | Product List | Glossary On
Versions: 1 2 3 4 5 6 7 8 9 10 11 12 13 14 15 16 17 18 19 20 21 22 23 24 25 26 27 28 29 30 31 32 33 34 35 36 37 38 39 40 41 42 43 44 45 46 47 48 49 50
000
ASUS43 KBIS 280002
RWRND

NORTH DAKOTA REGIONAL WEATHER ROUNDUP
NATIONAL WEATHER SERVICE BISMARCK ND
700 PM CDT THU APR 27 2017

NOTE: "FAIR" INDICATES FEW OR NO CLOUDS BELOW 12,000 FEET WITH NO
SIGNIFICANT WEATHER AND/OR OBSTRUCTIONS TO VISIBILITY.


NDZ001>003-009>011-017-280100-
NORTHWEST NORTH DAKOTA

CITY           SKY/WX    TMP DP  RH WIND       PRES   REMARKS
WILLISTON      FAIR      53  15  22 E12       29.76R
6HR MIN TEMP:  48; 6HR MAX TEMP:  55;

MINOT          FAIR      52  21  29 N14       29.75R
MINOT AFB      SUNNY     50  19  29 N10       29.75R
$$

NDZ018>021-031>035-040>046-280100-
SOUTHWEST NORTH DAKOTA

CITY           SKY/WX    TMP DP  RH WIND       PRES   REMARKS
BISMARCK       FAIR      53  26  35 NE9       29.73R
6HR MIN TEMP:  47; 6HR MAX TEMP:  54;

DICKINSON      FAIR      49  20  31 NE10      29.70R
GARRISON         N/A     50  17  27 NE8       29.74R
6HR MIN TEMP:  44; 6HR MAX TEMP:  51;

HETTINGER ARPT SUNNY     50  26  39 E10       29.70R
$$

NDZ004>008-012>016-024-026-027-054-280100-
NORTHEAST NORTH DAKOTA

CITY           SKY/WX    TMP DP  RH WIND       PRES   REMARKS
GRAND FORKS    CLOUDY    43  33  68 NE12      29.69R
GRND FRKS AFB  CLOUDY    43  31  62 NE15      29.69R
DEVILS LAKE    PTSUNNY   46  27  47 N21       29.73R
$$

NDZ022-023-025-028>030-036>039-047>053-280100-
SOUTHEAST NORTH DAKOTA

CITY           SKY/WX    TMP DP  RH WIND       PRES   REMARKS
FARGO          CLOUDY    41  30  65 NE5       29.69R
6HR MIN TEMP:  32; 6HR MAX TEMP:  42;

JAMESTOWN      PTSUNNY   48  31  51 N14       29.69R
$$




USA.gov is the U.S. government's official web portal to all federal, state and local government web resources and services.